Regional Weather Roundup
Issued by NWS

Home | Current Version | Previous Version | Text Only | Print | Product List | Glossary Off
Versions: 1 2 3 4 5 6 7 8 9 10 11 12 13 14 15 16 17 18 19 20 21 22 23 24 25 26 27 28 29 30 31 32 33 34 35 36 37 38 39 40 41 42 43 44 45 46 47 48 49 50

000
ASUS45 KBOU 221607
RWRCO

WEATHER ROUNDUP FOR COLORADO
NATIONAL WEATHER SERVICE DENVER/BOULDER CO
900 AM MST WED FEB 22 2017

NOTE: "FAIR" INDICATES FEW OR NO CLOUDS BELOW 12000 FEET WITH NO
SIGNIFICANT WEATHER AND/OR OBSTRUCTIONS TO VISIBILITY.

COZ001>005-013-030-031-221700-
...NORTHWEST COLORADO...

CITY           SKY/WX    TMP DP  RH WIND       PRES   REMARKS
CRAIG          LGT SNOW  32  28  85 S6        29.98F FOG     WCI  26
HAYDEN         PTSUNNY   30  25  80 W7        29.97S WCI  23
MEEKER         CLOUDY    43  29  57 W9        29.94R
MOUNT WERNER   NOT AVBL
STEAMBOAT SPGS CLOUDY    29  26  88 CALM      29.97S
WALDEN         NOT AVBL
$$

COZ006>008-011-221700-
...WEST CENTRAL VALLEYS...

CITY           SKY/WX    TMP DP  RH WIND       PRES   REMARKS
GRAND JUNCTION PTSUNNY   51  34  52 E3        29.94F
MONTROSE       FAIR      49  29  46 SW3       30.00F
EAGLE          PTSUNNY   48  25  40 W12       29.97S
RIFLE          CLOUDY    47  32  56 E5        29.94F
DELTA          PTSUNNY   51  34  52 N5        29.98F
NUCLA          FAIR      48  34  57 CALM      30.05S
$$

COZ017>023-064>068-221700-
...SOUTHWEST COLORADO...

CITY           SKY/WX    TMP DP  RH WIND       PRES   REMARKS
DURANGO        FAIR      38  34  85 N3        30.11F
CORTEZ         FAIR      46  38  73 SW5       30.06F
PAGOSA SPRINGS FAIR      38  37  94 CALM      30.14F
TELLURIDE      FAIR      41  13  32 SW12G21   30.09F
WOLF CREEK PAS HVY SNOW  23  23 100 SW21G39   30.19S VSB<1/4 WCI   8
$$

COZ009-010-012-014-032>034-037-058>063-221700-
...CENTRAL COLORADO...

CITY           SKY/WX    TMP DP  RH WIND       PRES   REMARKS
ASPEN          FAIR      42  19  39 N12       29.97F
BUENA VISTA    FAIR      45  13  27 SW14G24   29.99S
COPPER MTN     SNOW      27  12  54 W29G45    30.02F VSB 1/2 WCI  11
BERTHOUD PASS  FAIR      19  10  68 W41G51    29.97R WCI  -2
COTTONWOOD PAS PTSUNNY   37  12  35 SW15G28   30.02F
GUNNISON       FAIR      34  19  54 NE9       30.03F WCI  27
KREMMLING      CLOUDY    46  25  42 W16G22    29.96S
LEADVILLE      FAIR      30   9  41 VRB6      29.99F WCI  24
MONARCH PASS   FAIR      23  14  68 SW30G41   30.18R WCI   5
SALIDA         FAIR      49  15  26 W15G23    30.07F
SUNLIGHT       NOT AVBL
WILKERSON PASS FAIR      30  12  47 SW17G31   30.05F WCI  18
$$

COZ069>075-221700-
...SAN LUIS VALLEY/SANGRE DE CRISTO MOUNTAINS...

CITY           SKY/WX    TMP DP  RH WIND       PRES   REMARKS
ALAMOSA        FAIR      40  27  59 SE6       30.07F
LA VETA PASS   FAIR      34  21  60 N18G31    30.12F WCI  23
SAGUACHE       FAIR      39  25  56 S3        30.05F
$$

COZ035-036-038>040-221700-
...NORTHERN COLORADO FRONT RANGE...

CITY           SKY/WX    TMP DP  RH WIND       PRES   REMARKS
DENVER INTL AP FAIR      44  25  47 E16       29.89S
DMNS CITY PARK   N/A     45  24  42 E13       29.90R
AURORA         MOSUNNY   44  26  50 E13       29.90S
FRONT RANGE AP MOSUNNY   45  28  53 SE15      29.92R
ERIE MUNI ARPT FAIR      44  25  47 E9        29.91R
BOULDER MUN AP FAIR      43  27  52 SE5       29.90S
CENTENNIAL     FAIR      55  12  18 W9        29.88S
BROOMFIELD     MOSUNNY   41  25  52 E8        29.92R
FORT COLLINS   FAIR      45  27  49 N13       29.88R
LONGMONT       FAIR      46  27  48 S7        29.91F
$$

COZ041-046-047-076>085-087-088-221700-
...PIKES PEAK/PALMER DIVIDE AND SOUTHERN FOOTHILLS...

CITY           SKY/WX    TMP DP  RH WIND       PRES   REMARKS
COLO. SPRINGS  FAIR      57   6  13 W25G37    29.90F
A. F. ACADEMY  FAIR      53   7  15 W25G53    29.88F
SCHRIEVER AFB  FAIR      56   6  13 W31G44    29.90F
ELLICOTT       FAIR     N/A N/A N/A W21G33    29.91R
FALCON         FAIR      54   3  13 W26G39    29.93R
FORT CARSON    MOSUNNY   55  10  16 SW40G52   29.89R
LIMON          FAIR      46  26  45 NE13      29.92S
MONUMENT HILL  FAIR      50  10  20 W26G35    29.93S
TRINIDAD       FAIR      62  12  14 W26G36    29.93F
$$

COZ042>045-048>051-090-091-221700-
...NORTHEAST COLORADO...

CITY           SKY/WX    TMP DP  RH WIND       PRES   REMARKS
GREELEY ARPT   FAIR      48  24  39 N17G24    29.88R
AKRON          FAIR      46  21  37 NW12      29.89S
BURLINGTON     FAIR      53  29  39 NW12      29.89F
WRAY           NOT AVBL
STERLING       FAIR      52  23  32 N12       29.86S
HOLYOKE        FAIR      52  30  43 W8        29.86F
FORT MORGAN    FAIR      50  18  28 N12G21    29.91S
$$

COZ086-089-092>099-221700-
...SOUTHEAST COLORADO...

CITY           SKY/WX    TMP DP  RH WIND       PRES   REMARKS
PUEBLO         FAIR      61  22  22 W17       29.87F
LA JUNTA       FAIR      59  25  27 NE12      29.89R
LAMAR          FAIR      57  26  30 N9        29.87S
SPRINGFIELD      N/A     62  26  25 W14G20    29.88F
$$



USA.gov is the U.S. government's official web portal to all federal, state and local government web resources and services.